Regional Weather Roundup
Issued by NWS

Home | Current Version | Previous Version | Graphics & Text | Print | Product List | Glossary On
Versions: 1 2 3 4 5 6 7 8 9 10 11 12 13 14 15 16 17 18 19 20 21 22 23 24 25 26 27 28 29 30 31 32 33 34 35 36 37 38 39 40 41 42 43 44 45 46 47 48 49 50
000
ASUS43 KDMX 052007
RWRIA

WEATHER ROUNDUP FOR IOWA
NATIONAL WEATHER SERVICE DES MOINES IA
200 PM CST THU MAR 05 2015

NOTE: "FAIR" INDICATES FEW OR NO CLOUDS BELOW 12,000 FEET WITH NO
SIGNIFICANT WEATHER AND/OR OBSTRUCTIONS TO VISIBILITY.

* - THESE STATIONS ARE NOT NWS STATIONS...THUS NOT UNDER NWS
QUALITY CONTROL.  THEY ALSO DO NOT REPORT WEATHER SUCH
AS PRECIPITATION OR FOG.

IAZ001>003-012>014-020>022-031>034-043>046-052100-
   NORTHWEST IOWA

CITY           SKY/WX    TMP DP  RH WIND       PRES   REMARKS
CARROLL *      SUNNY     19   1  45 SW9       30.45F WCI   9
CHEROKEE *     SUNNY     19   3  49 S7        30.43F WCI  10
DENISON *      SUNNY     21   0  39 SW5G12    30.43F WCI  15
LE MARS *      SUNNY     25   3  39 S13       30.41F WCI  13
ORANGE CITY *  SUNNY     23   1  39 SW9G17    30.39F WCI  13
SHELDON *      SUNNY     21   1  42 SW10G17   30.38F WCI  10
SIOUX CITY     SUNNY     29   2  31 S9        30.41  WCI  20
SPENCER        SUNNY     18   3  52 S13       30.42  WCI   5
STORM LAKE *   SUNNY     18   0  45 SW7       30.42F WCI   8
$$

IAZ055>058-069>071-079>083-090>094-052100-
   SOUTHWEST IOWA

CITY           SKY/WX    TMP DP  RH WIND       PRES   REMARKS
ATLANTIC *     SUNNY     23   0  36 SW3       30.46F
AUDUBON *      SUNNY     21   1  42 SW5       30.46F WCI  15
CLARINDA *     SUNNY     25   0  33 VRB5      30.51F WCI  19
COUNCIL BLFS * SUNNY     25   3  39 S8        30.44F WCI  16
CRESTON *      SUNNY     19  -2  38 VRB6      30.48F WCI  11
HARLAN  *      SUNNY     21   1  42 VRB3      30.49F
LAMONI         SUNNY     21   2  43 W7        30.48  WCI  12
RED OAK *      SUNNY     23   0  36 S6        30.48F WCI  16
SHENANDOAH *   SUNNY     27   0  31 S7        30.50F WCI  19
$$

IAZ047>049-059>061-072>074-084-052100-
   CENTRAL IOWA

CITY           SKY/WX    TMP DP  RH WIND       PRES   REMARKS
AMES           SUNNY     13   0  56 CALM      30.50
ANKENY *       SUNNY     16  -2  45 VRB3      30.52F
CHARITON *     SUNNY     19  -2  38 W5G12     30.50F WCI  13
DES MOINES     SUNNY     18  -3  39 VRB5      30.51  WCI  11
GRINNELL*      SUNNY     10  -2  56 W3        30.52F
KNOXVILLE *    SUNNY     16   0  48 NW6       30.51F WCI   7
MARSHALLTOWN   SUNNY      8  -3  61 W6        30.51  WCI  -2
PELLA *        SUNNY     16   5  62 CALM      30.54F
PERRY *          N/A     18   3  53 W5        30.50F WCI  11
$$

IAZ004>006-015-016-023>025-035-036-052100-
   NORTH CENTRAL IOWA

CITY           SKY/WX    TMP DP  RH WIND       PRES   REMARKS
ALGONA *       SUNNY     16 N/A N/A SW10G16   30.45F WCI   3
CLARION *      SUNNY     12   1  62 SW7       30.48F WCI   2
ESTHERVILLE    SUNNY     14   1  56 SW8       30.42  WCI   3
FORT DODGE *   SUNNY     16   1  53 SW7       30.48F WCI   6
MASON CITY     SUNNY     10   1  67 SW8       30.48  WCI  -2
FOREST CITY *  SUNNY     14   0  52 SW8       30.45F WCI   3
IOWA FALLS *     N/A     12   1  62 SW8       30.50F HAZE    WCI   1
$$

IAZ007>011-017>019-026>030-037>042-050>054-066-052100-
   NORTHEAST IOWA

CITY           SKY/WX    TMP DP  RH WIND       PRES   REMARKS
CEDAR RAPIDS   SUNNY      8  -3  61 NW12      30.52  WCI  -7
CHARLES CITY * SUNNY      9  -4  56 W7        30.49F WCI  -3
CLINTON *      SUNNY     10   0  61 W12       30.56S WCI  -4
DECORAH *      SUNNY      9  -6  52 W8G15     30.46F WCI  -4
DUBUQUE        SUNNY      8  -4  58 W13       30.48  WCI  -8
MONTICELLO *   SUNNY      9  -4  56 NW9       30.52F WCI  -5
OELWEIN *      SUNNY      7  -4  61 W9G15     30.50F WCI  -7
WATERLOO       SUNNY     10  -2  58 W9        30.52  WCI  -3
$$

IAZ064-065-067-068-078-052100-
   EAST CENTRAL IOWA

CITY           SKY/WX    TMP DP  RH WIND       PRES   REMARKS
DAVENPORT      SUNNY     10  -2  58 W12       30.54  WCI  -5
IOWA CITY      SUNNY     10  -3  55 W6        30.56  WCI   0
MT. PLEASANT * SUNNY     16   0  48 NW6       30.55F WCI   7
MUSCATINE *    SUNNY     12  -2  52 NW8       30.57F WCI   1
QUAD CITIES    SUNNY     12   0  58 W9        30.55  WCI   0
$$

IAZ062-063-075>077-085>089-095>099-052100-
   SOUTHEAST IOWA

CITY           SKY/WX    TMP DP  RH WIND       PRES   REMARKS
BURLINGTON     SUNNY     13  -1  54 NW8       30.54  WCI   2
FAIRFIELD *    SUNNY     14  -2  48 NW9       30.54F WCI   2
FORT MADISON * SUNNY     14   1  57 NW10      30.55F WCI   1
KEOKUK *       SUNNY     16   1  53 N9G15     30.55F WCI   4
OSKALOOSA *      N/A     14   1  57 N3        30.54F
CENTERVILLE *  SUNNY     19   1  45 W6        30.52F WCI  11
OTTUMWA        SUNNY     18   0  45 NW9       30.53  WCI   7
WASHINGTON *   SUNNY     12   0  57 W5G12     30.55F WCI   4
$$

ABBREVIATIONS USED IN REMARKS
   TC - TEMPERATURES IN CELSIUS
  WCI - WIND CHILL INDEX
   HX - HEAT INDEX
  VSB - VISIBILITY
$$



USA.gov is the U.S. government's official web portal to all federal, state and local government web resources and services.